Little Rock, AR

8:03 PM CDT on March 23, 2017 (GMT -0500)
Adams

Weather History for KLIT - February, 2013

Change the Weather History Date:

Thursday, February 28, 2013

  Actual Average Record
Temperature  
Mean Temperature 42 °F 48 °F  
Max Temperature 51 °F 59 °F 84 °F (1980)
Min Temperature 33 °F 38 °F 18 °F (2002)
Degree Days  
Heating Degree Days 23 17  
Month to date heating degree days 572 568  
Since 1 July heating degree days 2269 2513  
Cooling Degree Days 0 0  
Month to date cooling degree days 0 1  
Year to date cooling degree days 2 2  
Moisture  
Dew Point 27 °F    
Average Humidity 56    
Maximum Humidity 73    
Minimum Humidity 33    
Precipitation  
Precipitation 0.00 in 0.15 in 2.63 in (1880)
Month to date precipitation 5.08 3.66  
Year to date precipitation 9.52 7.21  
Snow  
Snow 0.00 in 0.00 in 0.50 in (1916)
Month to date snowfall 0.2 1.3  
Since 1 July snowfall 10.9 3.1  
Snow Depth 0.00 in    
Sea Level Pressure  
Sea Level Pressure 30.12 in    
Wind  
Wind Speed 10 mph (NW)    
Max Wind Speed 15 mph    
Max Gust Speed 23 mph    
Visibility 10 miles    
Events      
T = Trace of Precipitation, MM = Missing Value Source: NWS Daily Summary

Daily Weather History Graph

Daily Weather History Graph

Search for Another Location

Airport or City:

Trip Planner

Search our weather history database for the weather conditions in past years. The results will help you decide how hot, cold, wet, or windy it might be!

Date:

Astronomy

Feb. 28, 2013 Rise Set
Actual Time 6:39 AM CST 6:04 PM CST
Civil Twilight 6:13 AM CST 6:29 PM CST
Nautical Twilight 5:44 AM CST 6:58 PM CST
Astronomical Twilight 5:15 AM CST 7:27 PM CST
Moon 9:20 PM CST (2/28) 7:58 AM CST (2/28)
Length of Visible Light 12h 15m
Length of Day
11h 25m
Waning Gibbous, 90% of the Moon is Illuminated
Feb 28
Waning Gibbous
Mar 4
Last Quarter
Mar 11
New
Mar 19
First Quarter
Mar 27
Full

Hourly Weather History & Observations

Time (CST) Temp. Windchill Dew Point Humidity Pressure Visibility Wind Dir Wind Speed Gust Speed Precip Events Conditions
12:53 AM 37.4 °F 30.3 °F 26.6 °F 65% 30.07 in 10.0 mi West 10.4 mph - N/A   Clear
1:53 AM 37.0 °F 29.8 °F 27.0 °F 67% 30.09 in 10.0 mi West 10.4 mph - N/A   Clear
2:53 AM 36.0 °F 29.6 °F 27.0 °F 70% 30.08 in 10.0 mi WNW 8.1 mph - N/A   Clear
3:53 AM 36.0 °F 29.0 °F 27.0 °F 70% 30.09 in 10.0 mi West 9.2 mph - N/A   Clear
4:53 AM 36.0 °F 29.0 °F 27.0 °F 70% 30.10 in 10.0 mi West 9.2 mph - N/A   Clear
5:53 AM 35.1 °F 27.9 °F 27.0 °F 72% 30.11 in 10.0 mi WNW 9.2 mph - N/A   Clear
6:53 AM 34.0 °F 26.6 °F 26.1 °F 73% 30.12 in 10.0 mi West 9.2 mph - N/A   Clear
7:53 AM 37.4 °F 31.4 °F 26.6 °F 65% 30.13 in 10.0 mi WNW 8.1 mph - N/A   Clear
8:53 AM 41.0 °F 34.7 °F 28.0 °F 60% 30.14 in 10.0 mi NW 10.4 mph 23.0 mph N/A   Partly Cloudy
9:53 AM 44.1 °F 37.7 °F 28.0 °F 53% 30.14 in 10.0 mi NW 12.7 mph 19.6 mph N/A   Partly Cloudy
10:53 AM 46.0 °F 39.6 °F 28.0 °F 50% 30.15 in 10.0 mi NW 15.0 mph 20.7 mph N/A   Partly Cloudy
11:53 AM 48.9 °F - 28.0 °F 44% 30.15 in 10.0 mi West 12.7 mph 19.6 mph N/A   Partly Cloudy
12:53 PM 51.1 °F - 27.0 °F 39% 30.12 in 10.0 mi NW 9.2 mph - N/A   Partly Cloudy
1:53 PM 53.1 °F - 27.0 °F 37% 30.11 in 10.0 mi NNW 15.0 mph - N/A   Partly Cloudy
2:53 PM 53.1 °F - 27.0 °F 37% 30.10 in 10.0 mi WNW 13.8 mph - N/A   Scattered Clouds
3:53 PM 53.6 °F - 24.8 °F 33% 30.08 in 10.0 mi WNW 10.4 mph - N/A   Scattered Clouds
4:53 PM 52.0 °F - 25.0 °F 35% 30.09 in 10.0 mi WNW 12.7 mph 19.6 mph N/A   Scattered Clouds
5:53 PM 50.0 °F - 26.1 °F 39% 30.10 in 10.0 mi WNW 11.5 mph - N/A   Scattered Clouds
6:53 PM 46.4 °F 41.5 °F 28.4 °F 50% 30.11 in 10.0 mi North 10.4 mph - N/A   Mostly Cloudy
7:53 PM 43.0 °F 36.4 °F 27.0 °F 53% 30.16 in 10.0 mi North 12.7 mph - N/A   Partly Cloudy
8:53 PM 39.0 °F 33.4 °F 27.0 °F 62% 30.17 in 10.0 mi North 8.1 mph - N/A   Clear
9:53 PM 37.0 °F 32.4 °F 26.1 °F 65% 30.18 in 10.0 mi North 5.8 mph - N/A   Clear
10:53 PM 36.0 °F 29.6 °F 25.0 °F 64% 30.17 in 10.0 mi North 8.1 mph - N/A   Clear
11:53 PM 34.0 °F 31.0 °F 24.1 °F 67% 30.17 in 10.0 mi NNW 3.5 mph - N/A   Clear